Preview of NWS' New Version of Forecast
This preview is not operational and should not be used for support decisions.
Latest weather observations around

Philadelphia, Philadelphia International Airport (KPHL)

Using English Units (Switch to International System of Units)
Date/ Time (EDT) Wind (mph) Vis. (mi) Weather Sky Cond. Temp (°F) Rel. Humidity Wind Chill (°F) Heat Index (°F) Pressure Precip. (in)
Air Dwpt 6 hour Altimeter (inHg) Sea level (inHg) 1 hr 3 hr 6 hr
Max Min
Oct 15 16:54 SW 15 10 Cloudy FEW012 SCT080 BKN130 OVC260 68        %     29.95 29.95 0 0  
Oct 15 15:54 SW 9 10 Light Rain FEW012 OVC110 67        %     29.97 29.97 0    
Oct 15 15:38 SW 13 10 Cloudy SCT012 BKN100 OVC160 67        %     29.99        
Oct 15 14:54 WSW 11 10 Cloudy OVC012 66        %     30 30      
Oct 15 14:13 SSW 17 10 Cloudy OVC012 65        %     30        
Oct 15 13:54 SSW 16 10 Cloudy OVC009 65        %     30 30     0
Oct 15 12:54 SSW 13 10 Cloudy OVC007 63        %     30.03 30.03      
Oct 15 11:54 SSW 13 10 Cloudy OVC009 62        %     30.06 30.06      
Oct 15 10:54 SSW 13 10 Cloudy BKN009 OVC014 61        %     30.09 30.09 0 0  
Oct 15 10:33 SSW 10 7 Light Rain OVC007 60        %     30.1   0    
Oct 15 10:22 SSW 11 4 Rain and Fog/Mist BKN009 OVC019 60        %     30.1   0    
Oct 15 10:02 S 9 5 Rain and Fog/Mist BKN012 OVC019 59        %     30.11   0    
Oct 15 09:54 S 11 4 Rain and Fog/Mist OVC012 59        %     30.11 30.1 0    
Oct 15 09:23 SSW 11 4 Light Rain and Fog/Mist OVC012 60        %     30.12   0    
Oct 15 09:17 SSW 9 7 Light Rain OVC014 60        %     30.13   0    
Oct 15 08:54 S 10 7 Light Rain BKN019 OVC025 60        %     30.12 30.12 0    
Oct 15 08:42 S 9 10 Cloudy BKN019 OVC025 60        %     30.12   0    
Oct 15 08:26 S 8 10 Cloudy BKN021 OVC027 59        %     30.12   0    
Oct 15 08:19 S 10 6 Light Rain and Fog/Mist BKN023 OVC029 59        %     30.12   0    
Oct 15 07:54 S 10 10 Light Rain BKN028 OVC032 60        %     30.12 30.11 0   0
Oct 15 07:48 S 10 10 Cloudy OVC028 61        %     30.12   0    
Oct 15 06:54 S 6 10 Clear   58        %     30.13 30.13      
Oct 15 06:05 SE 5 10 Cloudy BKN030 OVC037 57        %     30.14        
Oct 15 05:54 SE 5 10 Cloudy OVC028 57        %     30.14 30.14      
Oct 15 04:54 S 7 10 Cloudy OVC027 57        %     30.16 30.16 0 0  
Oct 15 03:54 S 5 10 Cloudy BKN027 OVC037 57        %     30.17 30.17 0    
Oct 15 02:54 E 3 10 Light Rain BKN028 OVC037 54        %     30.19 30.19 0    
Oct 15 02:16 E 5 10 Cloudy BKN028 OVC036 54        %     30.2   0    
Oct 15 02:04 ESE 5 8 Light Rain OVC034 55        %     30.2   0    
Oct 15 01:54 E 5 10 Light Rain BKN030 OVC038 55        %     30.2 30.2 0   0
Oct 15 00:54 Calm 10 Clear   55        %     30.21 30.21      
Oct 14 23:54 E 3 10 Cloudy OVC035 54        %     30.22 30.22      
Oct 14 22:54 SE 5 10 Cloudy OVC060 54        %     30.23 30.23      
Oct 14 21:54 Calm 10 Cloudy SCT085 OVC110 54        %     30.23 30.23      
Oct 14 20:54 SSE 3 10 Mostly Cloudy BKN080 55        %     30.23 30.22      
Oct 14 19:54 S 5 10 Mostly Cloudy BKN080 56        %     30.23 30.22     0
Oct 14 18:54 S 6 10 Mostly Cloudy FEW046 BKN090 54        %     30.22 30.22      
Oct 14 17:54 S 3 10 Mostly Cloudy SCT046 BKN090 57        %     30.22 30.22      
Oct 14 16:54 SW 5 10 Mostly Cloudy BKN049 BKN110 56        %     30.23 30.22   0  
Oct 14 15:54 WSW 6 10 Cloudy SCT049 OVC100 56        %     30.24 30.24      
Oct 14 14:54 SW 7 10 Cloudy FEW042 BKN080 OVC100 56 43     62%     30.24 30.24 0    
Oct 14 13:54 Calm 10 Cloudy FEW090 OVC110 55 44     66%     30.24 30.24      
Oct 14 12:54 Calm 10 Cloudy OVC130 54 43     66%     30.27 30.27      
Oct 14 11:54 Calm 10 Cloudy OVC140 54 43     66%     30.28 30.27      
Oct 14 10:54 Calm 10 Cloudy FEW024 OVC150 54 42     64%     30.28 30.27      
Oct 14 09:54 N 5 10 Cloudy OVC150 51 42     71%     30.27 30.27      
Oct 14 08:54 N 5 10 Mostly Cloudy BKN150 BKN250 50 42     74%     30.25 30.24      
Oct 14 07:54 Calm 10 Mostly Cloudy BKN200 BKN250 48 41     77%     30.2 30.2      
Oct 14 06:54 5 10 Mostly Cloudy BKN200 BKN250 47 41     80% 45   30.21 30.21      
Oct 14 05:54 Calm 10 Mostly Cloudy SCT220 BKN250 47 41     80%     30.21 30.2      
Oct 14 04:54 Calm 10 Mostly Cloudy FEW200 SCT220 BKN250 47 40     76%     30.19 30.19      
Oct 14 03:54 Calm 10 Mostly Cloudy BKN250 45 40     82%     30.19 30.18      
Oct 14 02:54 NNW 3 10 Partly Cloudy SCT250 47 40     76% 46   30.18 30.17      
Oct 14 01:54 NW 9 10 Mostly Clear FEW250 49 40     71% 45   30.16 30.16      
Oct 14 00:54 NW 8 10 Clear CLR 49 40     71% 45   30.14 30.14      
Oct 13 23:54 NW 7 10 Clear CLR 50 40     68%     30.13 30.12      
Oct 13 22:54 W 8 10 Clear CLR 50 41     71%     30.11 30.11      
Oct 13 21:54 WNW 9 10 Clear CLR 53 40     61%     30.09 30.09      
Oct 13 20:54 WSW 8 10 Clear CLR 53 41     63%     30.08 30.07      
Oct 13 19:54 W 7 10 Clear CLR 55 41     59%     30.05 30.05      
Oct 13 18:54 WNW 8 10 Mostly Clear FEW055 55 39     55%     30.02 30.02      
Oct 13 17:54 NNW 7 10 Partly Cloudy FEW035 SCT055 56 40     55%     29.98 29.98      
Oct 13 16:54 NW 10 10 Mostly Cloudy SCT035 SCT047 BKN065 57 40     53%     29.97 29.97      
Oct 13 15:54 W 11 10 Cloudy FEW035 OVC055 56 41     57%     29.97 29.96      
Oct 13 14:54 WNW 13 10 Mostly Cloudy SCT030 BKN050 56 40     55%     29.94 29.94      
Oct 13 13:54 WNW 10 10 Mostly Cloudy FEW028 BKN033 BKN046 54 41     61%     29.94 29.93     0
Oct 13 12:54 W 11 10 Mostly Cloudy SCT025 BKN033 BKN070 53 42     66%     29.93 29.93      
Oct 13 11:54 W 10 10 Cloudy FEW023 BKN033 OVC055 52 42     69%     29.93 29.93      
Oct 13 10:54 W 9 10 Mostly Cloudy FEW020 FEW038 BKN090 BKN130 51 42     71%     29.92 29.92 0 0  
Oct 13 09:54 WNW 9 10 Light Rain FEW015 SCT048 OVC080 49 42     77% 45   29.92 29.91 0    
Oct 13 08:54 WNW 9 10 Light Rain FEW015 BKN041 OVC060 49 43     80% 45   29.9 29.9 0    
Oct 13 07:54 NNW 8 10 Light Rain FEW015 FEW040 OVC055 49 44     83% 45   29.88 29.88 0   0
Oct 13 05:54 NW 8 10 Cloudy BKN065 OVC100 52 41     66%     29.84 29.83      
Oct 13 01:54 WNW 5 10 Cloudy SCT110 OVC220 52 41     66%     29.82 29.82      
Oct 12 18:54 WNW 7 10 Mostly Clear FEW250 59 38     45%     29.78 29.78      
Oct 12 17:54 WNW 11 10 Mostly Clear FEW250 60 38     44%     29.76 29.75      
Oct 12 16:54 NW 15 10 Mostly Clear FEW050 FEW250 61 37     41%     29.75 29.75      
Oct 12 15:54 NW 16 10 Mostly Clear FEW050 FEW250 62 37     39%     29.74 29.73      
Oct 12 12:54 NNW 18 10 Mostly Clear FEW050 62 40     44%     29.74 29.74      
Oct 12 11:54 NW 18 10 Mostly Clear FEW050 62 40     44%     29.74 29.74      
Oct 12 10:54   10 Mostly Clear FEW045 61 40     46%     29.73 29.72      
Oct 12 08:54   10 Mostly Cloudy FEW015 BKN035 BKN250 60 45     57%     29.68 29.68      
Oct 12 07:54   10 Mostly Cloudy FEW015 BKN035 BKN250 61 48     62%     29.63 29.63     0
Notice The following observation data may not be complete
Oct 12 02:13   6 Rain and Fog/Mist BKN011 BKN030 OVC090          %         0    
Oct 12 02:01   5 Rain and Fog/Mist BKN017 BKN029 OVC045 69 66     90%     29.47   0    
Oct 11 23:25 ENE 9 8 Light Rain FEW016 BKN080 OVC120 71 69     93%   72 29.54   0    
Oct 11 23:16 ENE 8 7 Light Rain FEW019 BKN028 OVC120 71 70     96%   72 29.54   0    
Oct 11 23:09 NE 8 8 Thunderstorms and Rain SCT019 BKN085 OVC120 71 70     96%   72 29.54   0    
Oct 11 23:01 N 10 6 Thunderstorms and Rain and Fog/Mist BKN019 BKN050 OVC080 71 70     96%   72 29.52   0    
Oct 11 23:00 N 10 6 Thunderstorms and Rain and Fog/Mist BKN019 BKN050 OVC080 71 70     96%   72 29.52   0    
Oct 11 22:54 NE 5 4 Rain and Fog/Mist SCT019 BKN060 OVC110 71 70     96%   72 29.53 29.52 0 0  
Oct 11 22:50 NE 5 4 Rain and Fog/Mist FEW045 BKN080 OVC110 72 70     94%   73 29.54   0    
Oct 11 22:06 ENE 8 6 Light Rain and Fog/Mist SCT010 BKN015 OVC110 71 70     96%   72 29.57   0    
Notice The following observation data may not be complete
Oct 11 22:00   6 Thunderstorms and Rain and Fog/Mist BKN015 BKN035 OVC060          %         0    
Oct 11 21:54 E 9 8 Thunderstorms and Rain BKN012 BKN050 OVC100 71 70     96%   72 29.58 29.57 0    
Oct 11 19:44 S 3 6 Rain and Fog/Mist SCT031 BKN090 OVC110 75 74     96%   77 29.59   0    
Oct 11 17:54 WSW 6 10 Light Rain SCT046 BKN055 BKN150 OVC250 79 73     82%   82 29.61 29.61 0    
Oct 11 13:54 SSW 14 10 Mostly Cloudy FEW018 SCT026 SCT046 BKN200 BKN250 81 73     77%   86 29.65 29.65     0
Notice The following observation data may not be complete
Oct 11 13:26   10 Mostly Cloudy FEW018 SCT026 BKN045 BKN250          %              
Oct 11 13:17 SW 16 10 Mostly Cloudy SCT018 BKN026 BKN050 BKN250 81 73     77%   86 29.66        
Oct 11 12:54 SSW 14 10 Mostly Cloudy BKN016 BKN022 BKN250 80 74     82%   85 29.67 29.67      
Oct 11 12:50 SSW 15 10 Mostly Cloudy BKN016 BKN022 BKN250 81 73     79%   85 29.68        
Oct 11 12:04 SSW 11 10 Mostly Cloudy SCT014 SCT026 BKN044 BKN250 79 75     88%   83 29.69        
Oct 11 11:17 S 11 10 Cloudy SCT009 BKN026 OVC042 76 74     94%   78 29.71   0    
Notice The following observation data may not be complete
Oct 11 08:25   7 Light Rain BKN012 BKN020 OVC046          %         0    
Oct 11 08:08 S 13 5 Light Rain and Fog/Mist BKN012 OVC019 75 72     90%   76 29.78   0    
Oct 11 02:54 S 7 10 Cloudy BKN011 BKN030 OVC075 73 70     90%   74 29.86 29.86      
Oct 10 18:54 S 9 10 Mostly Cloudy FEW045 SCT180 BKN250 76 69     79%   77 29.96 29.95      
Notice The following observation data may not be complete
Oct 10 07:30   0.75 Fog/Mist OVC003          %              
Oct 10 07:21 ENE 3 0.75 Fog/Mist OVC005 70 70     100%     30.15        
Oct 10 06:37 Calm 3 Fog/Mist OVC005 69 69     100%     30.15        
Oct 10 06:28 Calm 2 Fog/Mist and Patchy Fog OVC005 69 69     100%     30.15        
Notice The following observation data may not be complete
Oct 10 06:01   1 Fog/Mist and Patchy Fog SCT003 OVC006          %              
Oct 10 01:54 Calm 6 Fog/Mist FEW015 SCT065 BKN250 70 69     97%     30.2 30.2      
Oct 10 01:08 Calm 8 Partly Cloudy FEW007 SCT200 70 69     97%     30.21        
Oct 09 18:54 SSE 8 10 Mostly Cloudy FEW029 SCT038 BKN050 BKN250 76 70     82%   77 30.23 30.23      
Oct 09 17:54 SE 3 10 Mostly Cloudy SCT036 SCT065 BKN250 77 70     79%   78 30.23 30.22      
Oct 09 08:54 Calm 8 Cloudy FEW009 FEW023 OVC037 71 69     93%   72 30.35 30.34      
Notice The following observation data may not be complete
Oct 09 08:10   7 Cloudy FEW009 SCT022 OVC036          %              
Oct 09 07:27 Calm 8 Cloudy SCT009 BKN016 OVC033 70 68     93%     30.34   0    
Oct 09 07:08 Calm 8 Cloudy BKN009 BKN016 OVC031 70 69     97%     30.34   0    
Oct 09 04:54 Calm 7 Cloudy BKN009 OVC020 70 68     93%     30.34 30.34      
Oct 09 02:37 E 3 6 Fog/Mist SCT009 BKN022 OVC032 70 69     97%     30.36        
Notice The following observation data may not be complete
Oct 09 02:24   6 Fog/Mist FEW009 SCT026 OVC033          %              
Oct 09 02:05 ESE 3 5 Fog/Mist FEW020 OVC028 69 68     96%     30.36        
Oct 09 01:21 Calm 3 Fog/Mist FEW008 OVC021 69 69     100%     30.37        
Oct 09 01:07 E 3 3 Fog/Mist SCT010 OVC024 69 69     100%     30.37        
Oct 09 00:24 E 3 2 Light Drizzle and Fog/Mist BKN008 OVC012 69 68     96%     30.38   0    
Oct 08 20:54 ENE 8 2 Light Drizzle and Fog/Mist OVC004 68 68     100%     30.37 30.37 0    
Oct 08 20:05 E 9 3 Light Drizzle and Fog/Mist BKN004 OVC009 68 68     100%     30.38   0    
Oct 08 17:54 E 7 4 Fog/Mist OVC007 69 69     100%     30.36 30.36      
Oct 08 17:43 ENE 7 3 Fog/Mist OVC007 69 69     100%     30.36        
Oct 08 13:54 ENE 9 6 Fog/Mist OVC007 71 68     90%   72 30.37 30.37      
Oct 08 13:24 ENE 9 6 Fog/Mist OVC007 71 68     90%   72 30.38        
Oct 08 12:21 E 8 7 Clear   71 69     93%   72 30.39        
Oct 08 11:54 ENE 9 5 Clear   71 69     93%   72 30.38 30.37      
Oct 08 11:50 ENE 9 5 Clear   72 70     94%   73 30.38        
Notice The following observation data may not be complete
Oct 08 11:21   3 Fog/Mist OVC005          %              
Notice The following observation data may not be complete
Oct 08 11:03   2.5 Fog/Mist OVC005          %              
Oct 08 10:18 ENE 8 1.75 Fog/Mist OVC005 71 70     96%   72 30.37        
Oct 08 08:44 E 9 0.75 Fog/Mist OVC002 70 69     97%     30.36        
Notice The following observation data may not be complete
Oct 08 08:29   1.75 Fog/Mist BKN004 OVC010          %              
Oct 08 07:54 E 5 1.75 Fog/Mist SCT005 OVC010 70 69     97%     30.34 30.34      
Oct 08 07:20 ESE 3 1.75 Fog/Mist SCT002 OVC012 69 69     100%     30.33        
Oct 08 05:54 E 5 5 Fog/Mist FEW011 66 66     100%     30.31 30.31      
Oct 08 05:42 Calm 5 Fog/Mist FEW011 68 67     96%     30.3        
Notice The following observation data may not be complete
Oct 08 05:30   2.5 Fog/Mist FEW011          %              
Oct 07 20:54 Calm 10 Mostly Clear FEW100 71 70     96%   72 30.24 30.23      
Oct 07 17:54 WSW 5 10 Mostly Clear FEW019 FEW200 77 70     79%   78 30.2 30.2      
Oct 07 15:54 SW 9 10 Mostly Cloudy BKN019 77 69     77%   78 30.19 30.19      
Oct 07 14:54 WSW 7 10 Clear   77 70     79%   78 30.2 30.19      
Oct 07 11:54 SW 10 9 Cloudy OVC012 74 69     85%   75 30.22 30.22      
Notice The following observation data may not be complete
Oct 07 11:03   5 Fog/Mist SCT005 OVC011          %              
Oct 07 10:11 WSW 9 1.75 Light Drizzle and Fog/Mist OVC005 71 70     96%   72 30.23   0    
Oct 07 10:02 WSW 9 2 Light Drizzle and Fog/Mist OVC007 71 69     93%   72 30.23   0    
Oct 07 08:42 SW 10 5 Fog/Mist OVC009 71 68     90%   72 30.21        
Oct 07 04:25 SSW 8 10 Cloudy FEW008 BKN015 OVC028 70 67     90%     30.16        
Oct 06 19:26 SSE 6 10 Cloudy SCT011 OVC022 69 66     90%     30.18        
Oct 06 15:37 S 8 10 Cloudy OVC014 70 65     84%     30.18        
Oct 06 14:54 SSE 6 10 Cloudy BKN016 OVC021 70 65     84%     30.18 30.18      
Oct 06 14:45 SSE 5 10 Cloudy OVC015 70 65     84%     30.19        
Oct 06 11:54 SSE 3 10 Cloudy BKN009 OVC014 68 64     87%     30.22 30.22      
Oct 06 05:54 ESE 3 10 Cloudy FEW009 OVC014 63 61     93%     30.18 30.18      
Oct 06 05:46 ESE 5 10 Cloudy FEW009 OVC014 63 61     93%     30.18        
Oct 06 04:54 E 6 10 Cloudy OVC014 63 60     90%     30.17 30.16      
Oct 06 04:20 E 5 10 Cloudy OVC014 63 60     90%     30.16        
Oct 06 00:54 NE 3 10 Cloudy OVC016 64 59     84%     30.18 30.18      
Oct 06 00:09 E 5 10 Cloudy OVC018 64 59     84%     30.18        
Oct 05 19:54 SSE 3 10 Cloudy OVC027 65 60     84%     30.17 30.16     0
Oct 05 17:54 SSE 3 10 Cloudy OVC026 66 60     81%     30.14 30.14      
Oct 05 16:54 SE 5 10 Cloudy SCT026 OVC032 66 59     78%     30.13 30.13   0  
Oct 05 15:54 E 5 10 Cloudy SCT026 OVC032 66 58     75%     30.14 30.13 0    
Oct 05 13:54 NE 6 10 Cloudy FEW025 BKN041 OVC050 66 56     70%     30.14 30.13      
Oct 05 13:12 NE 10 10 Cloudy SCT025 OVC048 66 55     68%     30.15        
Oct 05 12:54 NE 10 10 Cloudy BKN025 OVC048 65 55     70%     30.15 30.15      
Oct 05 08:54 NE 13 10 Cloudy BKN050 OVC060 63 53     70%     30.14 30.14      
Oct 05 07:54 NE 17 10 Cloudy OVC046 63 53     70%     30.12 30.12      
Oct 05 06:54 NE 10 10 Cloudy OVC048 64 53     67%     30.09 30.09      
Oct 05 05:54 N 11 10 Cloudy FEW019 OVC049 63 52     67%     30.06 30.05      
Oct 05 05:23 N 15 10 Cloudy SCT019 OVC044 64 52     65%     30.05        
Oct 05 05:15 N 14 10 Cloudy BKN020 OVC044 64 52     65%     30.04        
Oct 05 04:54 N 13 10 Cloudy OVC045 64 51     63%     30.04 30.04      
Oct 05 03:54 N 14 10 Cloudy OVC050 65 50     58%     30.02 30.02      
Oct 05 03:10 N 13 10 Cloudy BKN044 OVC060 67 50     55%     30.02        
Oct 05 02:54 N 15 8 Cloudy SCT046 BKN070 OVC110 67 50     55%     30.02 30.02      
Oct 05 01:54 N 9 8 Cloudy SCT046 BKN060 OVC110 70        %     30.02 30.01     0
Oct 05 00:54 N 13 7 Cloudy SCT047 SCT070 OVC110 74        %     29.99 29.99      
Oct 04 23:54 NNW 8 7 Cloudy OVC080 75        %     29.99 29.98      
Oct 04 23:23 WNW 7 7 Cloudy BKN060 OVC080 76        %     29.99        
Oct 04 22:54 W 6 6 Fog/Mist BKN050 OVC065 75        %     29.98 29.98 0 0  
Oct 04 22:27 W 7 6 Fog/Mist BKN050 OVC065 75        %     29.98   0    
Oct 04 21:54 W 6 8 Light Rain OVC050 76        %     29.98 29.98 0    
Oct 04 20:54 SSW 9 7 Cloudy BKN044 OVC060 76        %     29.97 29.97      
Oct 04 20:15 S 5 7 Cloudy BKN047 OVC060 74        %     29.97        
Oct 04 19:54 Calm 10 Cloudy OVC049 73        %     29.96 29.96 0   0
Oct 04 19:00 SW 6 10 Light Rain SCT029 BKN047 OVC055 75        %     29.96   0    
Oct 04 18:54 SW 9 2.5 Heavy Rain and Fog/Mist SCT031 BKN040 OVC048 74        %     29.96 29.95 0    
Oct 04 18:27 WSW 11 2 Light Rain BKN036 BKN060 OVC100 81        %     29.95   0    
Oct 04 17:54 WSW 9 10 Cloudy BKN040 BKN100 OVC150 82        %     29.94 29.93 0    
Oct 04 16:54 WSW 8 10 Cloudy FEW055 SCT100 BKN150 OVC250 83        %     29.93 29.93      
Oct 04 15:54 WSW 10 10 Mostly Cloudy FEW180 BKN250 83        %     29.93 29.93      
Oct 04 14:54 WSW 8 10 Mostly Cloudy FEW180 BKN250 82        %     29.95 29.94      
Oct 04 13:54 SW 8 10 Mostly Cloudy FEW024 BKN250 80        %     29.96 29.96      
Oct 04 12:54 WSW 9 10 Mostly Cloudy FEW023 BKN250 78        %     29.99 29.98      
Oct 04 11:54 WSW 9 10 Mostly Cloudy FEW020 BKN250 75        %     30.01 30.01      
Oct 04 11:25 WSW 7 10 Mostly Cloudy SCT015 BKN250 73        %     30.02        
Oct 04 11:16 W 5 10 Mostly Cloudy BKN015 BKN250 74        %     30.03        
Oct 04 10:54 WSW 6 7 Partly Cloudy FEW012 SCT250 72        %     30.03 30.03      
Oct 04 10:17 WSW 6 7 Partly Cloudy FEW008 SCT250 69        %     30.04        
Oct 04 09:54 Calm 5 Fog/Mist SCT004 SCT250 66        %     30.05 30.05      
Oct 04 09:43 NW 3 5 Fog/Mist SCT004 SCT250 66        %     30.05        
Oct 04 09:34 Calm 3 Fog/Mist BKN003 65        %     30.05        
Oct 04 09:28 Calm 2 Fog/Mist BKN003 65        %     30.04        
Oct 04 09:16 SE 3 1 Fog/Mist BKN002 65        %     30.04        
Oct 04 09:09 S 3 0.5 Fog OVC002 65        %     30.04        
Oct 04 08:54 Calm 0.5 Fog OVC002 64        %     30.04 30.04      
Oct 04 08:48 Calm 0.5 Fog OVC002 64        %     30.04        
Oct 04 08:27 Calm 0.25 Fog VV002 64        %     30.04        
Oct 04 07:54 Calm 0.12 Fog VV002 64        %     30.04 30.04      
Oct 04 07:12 Calm 0.12 Fog VV002 63        %     30.05        
Oct 04 06:54 Calm 0.25 Fog OVC002 63        %     30.05 30.05      
Oct 04 06:52 Calm 0.25 Fog OVC002 63        %     30.05        
Oct 04 06:45 ESE 3 0.25 Fog OVC002 63        %     30.05        
Oct 04 06:36 E 3 0.5 Fog OVC002 63 63     100%     30.05        
Oct 04 06:10 E 5 0.75 Fog/Mist OVC002 63 63     100%     30.06        
Oct 04 05:54 Calm 0.5 Fog OVC002 63 63     100%     30.06 30.06      
Oct 04 05:45 Calm 0.5 Fog OVC002 63 63     100%     30.06        
Oct 04 05:20 Calm 0.25 Fog OVC002 63 63     100%     30.06        
Oct 04 05:15 Calm 0.25 Fog OVC002 63 63     100%     30.06        
Oct 04 05:08 Calm 0.25 Fog OVC002 63 63     100%     30.06        
Oct 04 05:01 Calm 0.5 Fog OVC002 63 63     100%     30.06        
Oct 04 04:54 Calm 1 Fog/Mist OVC003 63 63     100%     30.05 30.05      
Oct 04 04:39 Calm 1.25 Fog/Mist BKN003 OVC007 64 63     96%     30.06        
Oct 04 04:28 Calm 2 Fog/Mist BKN003 OVC011 64 62     93%     30.05        
Oct 04 04:18 Calm 5 Fog/Mist BKN005 OVC020 64 62     93%     30.05        
Oct 04 03:54 E 3 7 Cloudy BKN005 OVC020 64 61     90%     30.06 30.05      
Oct 04 03:18 Calm 8 Cloudy BKN006 BKN012 OVC020 63 61     93%     30.06        
Oct 04 03:12 Calm 8 Cloudy BKN009 BKN016 OVC022 63 60     90%     30.06        
Oct 04 03:07 Calm 9 Cloudy SCT009 BKN022 OVC030 63 60     90%     30.06        
Oct 04 03:03 Calm 9 Mostly Cloudy FEW016 BKN030 BKN045 63 60     90%     30.06        
Oct 04 02:54 Calm 10 Mostly Clear FEW280 63 60     90%     30.06 30.06      
May 14 16:54 SSW 9 10 Partly Cloudy FEW025 SCT230 73 62     68%   73 29.96 29.95      
May 14 12:54 3 7 Cloudy OVC014 64 57     78%     30.03 30.02      
May 13 16:54 SSE 6 10 Cloudy FEW007 OVC010 56 53     90%     30.1 30.1   0  
May 13 11:54 E 10 9 Cloudy OVC009 55 52     89%     30.15 30.15      
May 13 01:54 ENE 9 5 Fog/Mist OVC009 57 55     93%     30.1 30.09     1
May 12 11:15 6 9 Cloudy OVC010 61 56     83%     30.11        
May 12 09:54 E 6 10 Cloudy OVC009 59 56     90%     30.11 30.11      
May 12 07:54 ENE 14 6 Fog/Mist BKN008 OVC012 55 53     93%     30.11 30.11     1
May 12 05:54   3 Thunderstorms and Rain and Fog/Mist FEW018 BKN032 OVC046 54 52     93%     30.1 30.1 0    
May 12 03:51   4 Heavy Rain SCT035 OVC055 57 50     77%     30.15   0    
May 12 02:54 NNE 9 10 Cloudy BKN060 OVC100 60 46     60%     30.1 30.09      
May 12 00:54 E 5 10 Cloudy FEW041 BKN075 OVC095 60 46     60%     30.11 30.11 0    
May 11 15:54 3 10 Partly Cloudy FEW070 FEW100 SCT260 76 43     31%   75 30.01 30.01      
May 11 12:54 WNW 13 10 Partly Cloudy SCT055 SCT250 74 49     41%   73 30.01 30.01      
Jun 10 21:54 SSW 6 10 Mostly Clear FEW070 78 58     50%   78 30.05 30.04      
Jun 10 15:54   10 Mostly Clear FEW065 87 53     31%   85 29.99 29.99      
Jun 10 11:54 SW 9 10 Mostly Clear FEW150 FEW280 82 55     40%   81 30.03 30.03      
Jun 10 08:54 WSW 6 10 Mostly Cloudy FEW060 BKN120 BKN280 73 56     55%   73 30.03 30.03      
Jun 08 08:54 6 10 Clear   64 51     63%     30.01 30.01      
Jun 07 16:54 ENE 5 10 Cloudy OVC047 65 48     54%     30.02 30.01      
Jun 07 09:37 ENE 9 10 Cloudy BKN023 OVC040 57 47     69%     30.01        
Jun 06 06:32 NE 8 2 Rain and Fog/Mist SCT004 BKN012 OVC031 61 59     93%     29.7   0